Regional Weather Roundup
Issued by NWS

Home | Current Version | Previous Version | Text Only | Print | Product List | Glossary Off
Versions: 1 2 3 4 5 6 7 8 9 10 11 12 13 14 15 16 17 18 19 20 21 22 23 24 25 26 27 28 29 30 31 32 33 34 35 36 37 38 39 40 41 42 43 44 45 46 47 48 49 50

000
ASUS43 KMPX 280501
RWRMN
WEATHER ROUNDUP FOR MINNESOTA
NATIONAL WEATHER SERVICE TWIN CITIES/CHANHASSEN MN
1100 PM CST THU NOV 27 2014


NOTE: "FAIR" INDICATES FEW OR NO CLOUDS BELOW 12,000 FEET WITH NO
SIGNIFICANT WEATHER AND/OR OBSTRUCTIONS TO VISIBILITY. N/A MEANS
CURRENT SKY AND/OR WEATHER CONDITIONS ARE NOT AVAILABLE.

MNZ060>063-068>070-280600-
   Twin Cities Metro

CITY           SKY/WX    TMP DP  RH WIND       PRES   REMARKS
TWIN CITIES    LGT SNOW   6  -3  66 SE6       30.32S WCI  -4
ST PAUL        CLOUDY     8  -2  63 SE8       30.33F WCI  -4
CRYSTAL        LGT SNOW   9  -1  64 SE6       30.29F WCI  -1
BLAINE         CLOUDY    10   0  61 S6        30.29F WCI   1
LAKEVILLE      LGT SNOW   5  -2  72 SE3       30.29F
EDEN PRAIRIE   LGT SNOW   6   0  76 SE5       30.30S WCI  -3
SOUTH ST PAUL  CLOUDY     9  -3  60 S3        30.32S
LAKE ELMO      CLOUDY    10   1  67 S6        30.32S WCI   1
$$
MNZ001>005-007-008-013>017-022>024-027-028-280600-
   Northwest Minnesota

CITY           SKY/WX    TMP DP  RH WIND       PRES   REMARKS
BEMIDJI        MOCLDY     7   0  73 S7        30.13F WCI  -5
HALLOCK        FLURRIES   9   1  72 S9        30.17S WCI  -5
ROSEAU         CLOUDY     7   0  72 S6        30.17S WCI  -3
WARROAD        CLOUDY     5  -2  72 S5        30.16F WCI  -4
THIEF RVR FALL CLOUDY     9   5  85 S9        30.14F WCI  -5
CROOKSTON      CLOUDY    10   5  79 S9        30.17S WCI  -2
FOSSTON        CLOUDY     7   1  78 S9        30.13S WCI  -7
DETROIT LAKES  LGT SNOW   9   5  85 SE12      30.12F WCI  -6
MOORHEAD       LGT SNOW  10   9  92 SE15      30.12F WCI  -6
PARK RAPIDS    LGT SNOW   5   0  79 S9        30.14F WCI  -9
MAHNOMEN       CLOUDY     8   2  79 S10       30.13F WCI  -7
$$
MNZ006-009>011-018-025>026-280600-
   North Central Minnesota

CITY           SKY/WX    TMP DP  RH WIND       PRES   REMARKS
BAUDETTE       CLOUDY     3  -4  72 SE3       30.16F
FLAG ISLAND    CLOUDY     5  -2  72 S9        30.16S WCI  -9
INTL FALLS     CLOUDY     2  -6  69 CALM      30.18F
WASKISH        CLOUDY     7   0  72 CALM      30.15F
BIG FORK       MOCLDY     7  -2  66 CALM      30.16F
LONGVILLE      CLOUDY     7  -4  61 S7        30.16F WCI  -5
GRAND RAPIDS   MOCLDY     5  -2  72 S10       30.15F WCI -10
CRANE LAKE     CLOUDY     0  -6  78 CALM      30.22F
ORR            CLOUDY     1  -6  71 CALM      30.16F
COOK           MOCLDY     1  -4  78 CALM      30.18F
WALKER         CLOUDY     6  -5  60 S8        30.15F WCI  -7
$$
MNZ012-019>021-037-280600-
   Northeast Minnesota

CITY           SKY/WX    TMP DP  RH WIND       PRES   REMARKS
DULUTH         MOCLDY     5  -5  63 SW7       30.20F WCI  -7
ELY            MOCLDY    -2  -6  84 CALM      30.19S
HIBBING        CLOUDY     5  -4  66 SE5       30.18F WCI  -4
EVELETH        MOCLDY     3  -4  72 CALM      30.19F
DULUTH HARBOR  MOCLDY     9  -2  61 CALM      30.31F
TWO HARBORS    CLOUDY     9  -2  61 W5        30.23F WCI   0
SILVER BAY     MOCLDY     7   0  72 CALM      30.22F
GRAND MARAIS     N/A      8  -3  61 NW5       30.27F WCI   0
G MARAIS ARPRT MOCLDY    -2 -11  65 CALM      30.16F
$$
MNZ029>031-032-039>041-046>048-054>057-064-280600-
   West Central Minnesota

CITY           SKY/WX    TMP DP  RH WIND       PRES   REMARKS
FERGUS FALLS   LGT SNOW   9   1  72 SE15      30.16F VSB 1   WCI  -8
WHEATON        LGT SNOW   7   1  78 E20       30.12F WCI -13
MORRIS         LGT SNOW   7   1  78 SE18      30.12F WCI -12
ALEXANDRIA     LGT SNOW   5   1  83 SE13      30.16S VSB 1   WCI -12
ELBOW LAKE     LGT SNOW   6   3  86 SE16      30.11F VSB 3/4 WCI -12
WADENA         LGT SNOW   5   1  85 SE9       30.15F WCI  -9
GLENWOOD       LGT SNOW   5   1  85 E14       30.15F VSB 1   WCI -12
APPLETON       CLOUDY     9   3  78 SE15      30.13F WCI  -8
BENSON         LGT SNOW   7   1  78 SE14G20   30.14F WCI -10
ORTONVILLE     CLOUDY     7   1  78 SE12      30.10S WCI  -9
MADISON        MOCLDY    12   7  79 SE18      30.10F WCI  -5
WILLMAR        LGT SNOW   7   1  78 E16       30.19F WCI -11
$$
MNZ033>034-036-042>043-049>051-058-059-280600-
   Central Minnesota

CITY           SKY/WX    TMP DP  RH WIND       PRES   REMARKS
ST CLOUD       LGT SNOW   7   1  76 SE9       30.25F VSB 1   WCI  -7
SAUK CENTRE    LGT SNOW   5   1  83 SE10      30.18F WCI -10
PAYNESVILLE    LGT SNOW   2  -1  88 E9        30.21F WCI -12
AITKIN         MIX PCPN  10   0  61 S10       30.20F WCI  -3
PINE RIVER     LGT SNOW   7   0  72 S7        30.20F WCI  -5
BRAINERD       LGT SNOW   5   0  79 S8        30.20F WCI  -8
STAPLES        LGT SNOW   3   0  85 SE7       30.17F WCI  -9
LONG PRAIRIE   LGT SNOW   5   1  85 SE7       30.19F WCI  -7
LITTLE FALLS   LGT SNOW   7   1  78 SE6       30.22F WCI  -3
LITCHFIELD     LGT SNOW   5   1  85 SE9       30.23F WCI  -9
BUFFALO        LGT SNOW   6   0  78 SE5       30.29F WCI  -3
MAPLE LAKE     LGT SNOW   6   2  82 SE5       30.27F WCI  -2
$$
MNZ037-044-045-052-053-280600-
   East Central Minnesota

CITY           SKY/WX    TMP DP  RH WIND       PRES   REMARKS
PRINCETON      LGT SNOW  10   0  61 CALM      30.27F
MORA             N/A    N/A N/A N/A MISG        N/A
CAMBRIDGE      CLOUDY    10   1  67 S3        30.26F
RUSH CITY      CLOUDY     9   1  72 CALM      30.28F
MOOSE LAKE     CLOUDY     9   0  66 S3        30.23F
HINCKLEY       CLOUDY    10   1  67 CALM      30.28F
CLOQUET        CLOUDY     5  -2  72 CALM      30.21F
MCGREGOR       CLOUDY     9   0  66 S7        30.22F WCI  -3
$$
MNZ071>073-080-081-089-090-097-098-280600-
   Southwest Minnesota

CITY           SKY/WX    TMP DP  RH WIND       PRES   REMARKS
MONTEVIDEO     FLURRIES   7   1  78 S17       30.15F WCI -12
GRANITE FALLS  CLOUDY     6   1  80 E14       30.16F WCI -11
CANBY          CLOUDY    14   8  77 SE13      30.07F WCI  -1
MARSHALL       CLOUDY    10   1  67 SE14      30.10F WCI  -5
REDWOOD FALLS  CLOUDY     5   0  79 SE15      30.17F WCI -13
OLIVIA         LGT SNOW   9   3  78 SE15      30.18F WCI  -8
PIPESTONE      CLOUDY    12   9  85 S15G22    30.02F WCI  -4
WINDOM         CLOUDY     9   1  72 SE13G20   30.12F WCI  -7
WORTHINGTON    CLOUDY    10   3  72 S15       30.09F WCI  -6
JACKSON        CLOUDY    10   1  67 SE13      30.14F WCI  -5
TRACY          CLOUDY    11   4  73 S17       30.09F WCI  -6
SLAYTON        CLOUDY    11   6  81 SE22      30.05F WCI  -9
$$
MNZ065>067-074>077-082>085-091>093-280600-
   South Central Minnesota

CITY           SKY/WX    TMP DP  RH WIND       PRES   REMARKS
MANKATO        CLOUDY     7   1  78 SE9       30.25F WCI  -7
NEW ULM        CLOUDY     3   0  85 SE10      30.21F WCI -12
ST JAMES       CLOUDY     9   1  72 SE12      30.21F WCI  -6
FAIRMONT       CLOUDY     9   0  66 S15       30.19F WCI  -8
GLENCOE        LGT SNOW   6   2  85 SE9       30.25F WCI  -8
FARIBAULT      LGT SNOW   7   0  72 SE5       30.28S WCI  -2
OWATONNA       LGT SNOW   7   0  72 SE8       30.26S WCI  -6
WASECA         LGT SNOW   9   0  66 SE8       30.28S WCI  -4
ALBERT LEA     CLOUDY     9   0  66 S12       30.24F WCI  -6
$$
MNZ078>079-086>088-094>096-280600-
   Southeast Minnesota

CITY           SKY/WX    TMP DP  RH WIND       PRES   REMARKS
ROCHESTER      CLOUDY     8  -1  66 SE12      30.26F WCI  -7
RED WING       CLOUDY    10   0  61 SE3       30.32S
STANTON        FLURRIES   9   0  65 S3        30.29F
DODGE CENTER   CLOUDY     9   1  72 S9        30.25F WCI  -5
WINONA         MOCLDY    12   3  67 S3        30.35R
AUSTIN         FLURRIES   9   0  66 S6        30.26S WCI  -1
PRESTON        CLOUDY     8   1  73 S8        30.28F WCI  -4
$$
ABBREVIATIONS USED IN REMARKS
   TC - TEMPERATURES IN CELSIUS
  WCI - WIND CHILL INDEX
   HX - HEAT INDEX
  VSB - VISIBILITY
$$


USA.gov is the U.S. government's official web portal to all federal, state and local government web resources and services.